Location: Alsip
(41.6689°N, 87.7387°W)
Time: 15:12:57
(UTC+00:00)

IDEFIX/ARIANE 42P - Pass Details

Date: 14 July 2020
Orbit: 784 x 804 km, 98.4° (Epoch: 13 August)

Event Time Altitude Azimuth Distance (km) Brightness Sun altitude
Rises 08:37:25 0° 19° (NNE) 3,289 7.1 -16.7°
Reaches altitude 10° 08:39:50 10° 25° (NNE) 2,354 6.3 -16.4°
Maximum altitude 08:44:50 47° 99° (E) 1,035 3.4 -15.8°
Enters shadow 08:49:47 10° 173° (S) 2,332 4.6 -15.2°
